Вернуться в каталог

WUHAN-1

АктивенНаукаSSO
NORAD 59810·PAYLOAD·🇨🇳 China
Это название спутника еще не подтверждено официальными источниками.

Запущен May 21, 2024 с Jiuquan Satellite Launch Center

Loading…

Ближайшие Пролёты (ближайшие 24 часа)

TLE

СвежийSource: Space-Track

Эпоха: Sep 14, 2026, 22:35 UTC

1 59810U 24095A   26257.94104359  .00003205  00000-0  19965-3 0  9993
2 59810  97.5284 335.4684 0004460 114.8624 245.3069 15.10275546127693

Отслеживайте WUHAN-1 в реальном времени с AllMySat

Download on the App Store